Hourly Data Report for June 22, 2017

TORONTO CITY
ONTARIO

43°40'00.000" N
79°24'00.000" W
112.50 m
6158355
71508
XTO

Download Data

Hourly Data (June 2017)
Hourly Data Report for June 22, 2017
TIME
LST
Temp Definition
°C
Dew Point Definition
°C
Rel Hum Definition
%
Precip. Amount Definition
mm

Wind Dir Definition
10's deg

Wind Spd Definition
km/h
Visibility Definition
km
Stn Press Definition
kPa
Hmdx Definition


Wind Chill Definition


Weather Definition


00:00 16.7 11.1 70 0.0 LegendMM LegendMM   100.16     LegendNANA
01:00 15.9 11.3 74 0.0 LegendMM LegendMM   100.14     LegendNANA
02:00 15.3 11.7 79 0.0 LegendMM LegendMM   100.13     LegendNANA
03:00 14.8 11.8 82 0.0 LegendMM LegendMM   100.13     LegendNANA
04:00 14.6 11.4 82 0.0 LegendMM LegendMM   100.10     LegendNANA
05:00 14.2 11.6 84 0.0 LegendMM LegendMM   100.13     LegendNANA
06:00 16.0 12.5 80 0.0 LegendMM LegendMM   100.13     LegendNANA
07:00 19.4 12.6 65 0.0 LegendMM LegendMM   100.16     LegendNANA
08:00 19.3 11.9 62 0.0 LegendMM LegendMM   100.14     LegendNANA
09:00 18.9 11.7 63 0.0 LegendMM LegendMM   100.14     LegendNANA
10:00 19.2 11.5 61 0.0 LegendMM LegendMM   100.15     LegendNANA
11:00 17.7 14.4 81 0.3 LegendMM LegendMM   100.05     LegendNANA
12:00 17.8 14.3 80 0.9 LegendMM LegendMM   99.90     LegendNANA
13:00 18.3 11.3 64 0.0 LegendMM LegendMM   99.79     LegendNANA
14:00 20.7 14.0 65 0.0 LegendMM LegendMM   99.77     LegendNANA
15:00 21.3 14.2 64 0.0 LegendMM LegendMM   99.72 25   LegendNANA
16:00 21.2 14.6 66 0.0 LegendMM LegendMM   99.69 25   LegendNANA
17:00 20.7 15.1 71 0.0 LegendMM LegendMM   99.65 25   LegendNANA
18:00 20.0 14.9 73 0.0 LegendMM LegendMM   99.60     LegendNANA
19:00 20.2 15.1 72 0.0 LegendMM LegendMM   99.56     LegendNANA
20:00 19.6 15.4 77 0.0 LegendMM LegendMM   99.50     LegendNANA
21:00 19.6 15.8 79 0.0 LegendMM LegendMM   99.48     LegendNANA
22:00 19.5 15.9 80 0.0 LegendMM LegendMM   99.45     LegendNANA
23:00 20.0 17.2 84 0.7 LegendMM LegendMM   99.44 25   LegendNANA

Notes on Data Quality.

Legend

  • E = Estimated
  • M = Missing
  • NA = Not Available*
  • [empty] = Indicates an unobserved value
Date modified: